690  
NZUS99 KDVN 251610  
HRRRRR  
HOURLY WEATHER ROUNDUP  
NATIONAL WEATHER SERVICE QUAD CITIES IA IL  
1100 AM CDT TUE APR 25 2017  
 
NOTE: "FAIR" INDICATES FEW OR NO CLOUDS BELOW 12,000 FEET WITH  
NO SIGNIFICANT WEATHER AND/OR OBSTRUCTIONS TO VISIBILITY.  
------------------------------------------------------------------  
 
CITY SKY/WX TMP DP RH WIND PRES REMARKS  
BURLINGTON CLOUDY 65 47 52 SE6 29.59F  
CEDAR RAPIDS CLOUDY 65 47 52 S10 29.56S  
DAVENPORT MOSUNNY 69 44 40 S12 29.61S  
DUBUQUE CLOUDY 66 43 43 S13 29.60F  
IOWA CITY CLOUDY 66 47 50 SE8 29.58F  
MOLINE CLOUDY 70 45 40 S10 29.61R  
------------------------------------------------------------------  
THE STATIONS BELOW ARE NOT NWS STATIONS AND ARE NOT SUBJECT TO NWS  
QUALITY CONTROL. SOME STATIONS DO NOT REPORT WEATHER SUCH AS FOG.  
------------------------------------------------------------------  
 
CITY SKY/WX TMP DP RH WIND PRES REMARKS  
CLINTON PTSUNNY 70 48 45 SE8 29.62S  
FAIRFIELD CLOUDY 63 46 55 SE13G18 29.53F  
FORT MADISON CLOUDY 66 46 48 E7 29.58F  
FREEPORT MOSUNNY 69 44 40 S15 29.64F  
INDEPENDENCE CLOUDY 68 45 42 S12 29.55S  
KEOKUK CLOUDY 66 48 52 SE9 29.57F  
MACOMB CLOUDY 70 44 39 S10 29.63F  
MONTICELLO PTSUNNY 70 43 37 SE12G18 29.58R  
MT PLEASANT LGT RAIN 63 46 54 E13G18 29.55F  
MUSCATINE CLOUDY 66 45 45 SE9 29.59F  
SAVANNA CLOUDY 69 44 41 S8 29.62S  
STERLING/R.F. MOSUNNY 73 44 35 S12G17 29.63F  
VINTON CLOUDY 70 43 37 SE12 29.54S  
WASHINGTON CLOUDY 64 46 52 SE14 29.56F  
------------------------------------------------------------------  
 
 
CLICK HERE TO GO TO PREVIOUS BULLETINS.

The Nexlab IL Page
The Nexlab IA Page
The Nexlab MO Page Main Text Page